Location: Peterborough
(44.3091°N, 78.3197°W)
Time: 15:53:02
(UTC-04:00)

Explorer 7 - Pass Details

Date: 29 March 2023
Orbit: 477 x 653 km, 50.3° (Epoch: 04 June)

Event Time Altitude Azimuth Distance (km) Brightness Sun altitude
Rises 14:47:16 0° 189° (S) 2,956 11.2 44.7°
Reaches altitude 10° 14:50:29 10° 167° (SSE) 2,032 10.3 44.4°
Maximum altitude 14:53:11 15° 132° (SE) 1,687 9.5 44.1°
Drops below altitude 10° 14:55:51 10° 96° (E) 1,992 9.6 43.9°
Sets 14:58:56 0° 74° (ENE) 2,865 10.1 43.5°
